Wind_Speed
24 23 20 17 16 15 14 13 11 10 8 8 6 5 6 7 8 9 10 12 14 15 17 18 19 20 21 21 21 21 21 20 20 19 19 18 18 18 17 17 16 15 15 16
24 21 19 18 16 15 14 13 11 9 8 7 6 5 5 5 6 8 10 12 14 15 17 18 19 20 21 21 22 22 21 20 20 20 20 19 19 18 18 17 15 15 14 14
21 19 19 18 16 14 13 11 9 8 7 6 5 4 3 4 5 7 9 11 13 15 16 17 18 19 20 21 22 22 21 20 21 21 21 20 19 19 18 17 15 14 13 12
22 20 19 18 15 13 11 9 8 7 7 6 4 3 2 3 4 6 9 11 12 13 15 16 17 18 19 20 21 22 22 21 21 21 21 21 21 20 18 17 16 14 13 12
19 19 18 16 14 12 10 8 7 8 6 5 4 2 1 2 4 6 8 9 11 13 14 15 16 17 19 20 21 22 22 22 22 22 21 21 21 21 19 18 17 15 13 12
18 18 17 13 11 10 8 8 8 8 6 5 4 2 1 2 4 5 7 9 10 12 13 14 15 16 18 19 21 22 23 23 23 23 22 22 22 21 20 19 18 17 15 12
17 16 14 12 11 9 9 8 9 8 7 6 5 3 1 2 3 5 7 8 9 10 12 13 14 15 17 18 20 21 23 23 24 24 23 22 22 22 21 20 19 18 16 13
16 14 13 11 11 9 8 8 9 9 9 7 6 3 2 1 2 4 6 7 8 9 11 12 13 15 16 18 19 21 22 23 24 24 24 23 22 22 22 21 20 19 17 15
16 14 12 10 10 10 9 9 9 9 9 8 6 5 3 2 1 3 4 6 7 8 9 11 12 14 15 17 18 20 21 23 24 24 24 24 23 22 22 22 21 20 19 17
14 13 11 10 9 9 9 9 9 9 9 8 7 6 5 4 1 1 2 4 5 7 8 10 12 13 15 16 18 19 21 22 23 24 24 24 24 24 23 22 22 21 20 19
12 12 11 11 10 9 9 9 9 9 10 9 7 5 5 3 2 1 1 3 4 6 8 10 11 12 14 16 17 19 20 21 22 23 24 24 24 24 24 23 22 21 21 20
11 12 11 10 9 10 9 10 10 10 10 9 8 6 6 4 3 1 1 2 4 6 7 9 10 12 13 15 16 18 19 20 21 22 23 24 24 24 24 23 23 22 21 20
10 10 10 10 9 9 10 10 10 10 10 9 8 7 6 5 3 2 2 3 4 5 7 8 10 11 13 14 15 17 18 20 21 21 22 23 24 24 23 23 23 22 21 20
10 10 9 10 10 10 10 10 10 10 10 9 8 7 6 5 4 4 3 3 4 5 7 8 9 11 12 13 15 16 17 19 20 21 22 23 23 24 23 23 23 22 21 20
10 10 10 10 10 11 11 10 10 10 10 10 9 7 7 6 5 4 4 4 5 6 7 8 10 11 12 13 14 16 17 18 19 20 21 22 22 23 23 23 23 22 21 21
11 12 12 12 12 12 11 10 10 11 11 10 9 8 7 6 5 5 5 5 6 7 8 9 10 11 12 13 14 15 17 18 19 20 20 21 21 22 23 23 23 22 21 21
13 13 13 13 14 13 11 10 11 11 11 11 10 9 8 7 6 6 6 6 7 8 8 9 10 11 12 13 14 15 17 18 19 19 20 20 21 21 22 22 22 22 21 21
12 13 13 14 14 14 11 12 12 12 11 11 11 10 9 8 8 7 8 8 8 9 9 10 11 12 13 14 15 16 17 18 19 19 20 20 21 21 21 21 21 21 21 20
13 13 13 14 14 13 12 13 13 12 12 12 11 11 10 10 9 9 9 9 10 10 11 11 12 13 14 15 16 17 17 18 19 19 20 20 20 21 21 21 21 21 21 20
14 14 14 14 14 13 13 13 13 13 12 12 12 12 11 11 11 11 11 11 12 12 12 13 13 14 15 16 16 17 18 19 19 20 20 20 21 21 21 21 21 21 20 20
15 15 15 15 14 13 13 14 13 13 12 13 13 13 12 12 12 13 13 13 13 14 14 14 15 15 16 17 18 18 19 19 20 20 21 21 21 21 21 21 21 20 20 19
17 17 17 17 15 13 15 14 14 14 14 14 14 14 14 14 14 14 14 15 15 15 15 16 16 17 17 18 19 20 20 20 21 21 21 22 22 21 21 21 21 21 20 20
19 19 19 19 17 16 17 16 16 16 16 16 16 16 16 16 16 16 16 16 17 17 17 17 17 18 19 19 20 21 21 21 22 22 22 23 23 23 22 22 22 22 21 21
21 21 21 20 19 19 19 19 18 18 18 18 18 17 17 18 18 18 18 18 18 19 19 19 19 20 20 21 21 22 22 23 23 23 24 24 24 24 24 24 23 23 23 22
22 23 23 22 21 22 22 21 21 20 20 20 20 19 19 20 20 19 19 20 20 20 20 20 21 21 22 22 23 23 24 24 24 25 25 26 26 26 26 26 25 25 24 24
24 25 26 24 24 25 25 24 23 23 22 22 22 22 21 21 21 21 21 21 21 21 22 22 23 23 24 24 24 25 25 25 26 26 27 27 27 27 27 27 27 27 26 26
Wind_Direction
223 227 231 236 240 246 251 263 274 281 291 301 315 334 335 341 351 3 8 7 5 2 1 0 360 359 358 357 355 354 353 352 351 348 345 342 339 336 331 324 315 304 293 285
221 224 226 230 234 240 249 263 269 278 293 304 323 331 330 339 357 5 9 9 7 3 3 2 1 1 1 0 359 358 358 357 356 355 352 349 345 342 338 333 326 316 305 295
219 221 224 227 231 234 248 258 272 278 290 304 315 321 326 342 360 10 15 10 6 4 4 3 2 2 3 2 1 1 1 0 360 359 358 356 353 349 346 343 336 328 318 306
213 216 220 224 230 237 246 256 267 282 291 300 304 301 318 355 14 18 16 9 5 6 6 5 4 5 5 4 5 5 5 4 3 2 1 0 359 356 352 350 346 338 329 317
209 211 215 219 225 239 241 248 263 272 276 275 274 269 315 18 31 27 19 10 7 7 6 6 7 7 6 7 8 9 9 8 6 5 4 4 2 1 357 354 352 347 339 329
205 210 213 216 226 237 235 241 252 259 258 251 248 217 113 61 43 33 23 14 9 7 6 7 8 8 8 10 11 11 12 11 10 9 8 7 6 5 2 359 356 354 350 342
201 206 209 215 226 234 234 238 243 246 245 242 234 200 146 75 47 35 25 17 12 11 9 8 7 7 8 10 11 11 12 13 13 12 11 11 10 9 7 5 3 360 357 352
198 198 204 216 227 232 234 235 238 244 250 239 229 213 193 132 52 36 25 18 13 12 9 7 7 7 8 9 11 11 13 13 14 14 14 13 12 11 10 9 8 6 4 0
197 198 202 212 221 229 230 231 235 239 243 238 227 211 193 191 86 39 22 14 10 7 5 5 5 7 8 9 10 11 12 13 14 15 15 15 14 13 12 11 11 11 9 5
192 194 200 205 213 220 227 230 231 231 235 239 230 209 191 197 171 43 17 10 7 4 1 1 4 6 7 8 9 10 11 11 13 14 14 15 15 14 13 13 13 13 13 13
194 198 201 204 209 221 226 231 230 228 231 237 231 205 200 196 188 188 356 4 4 2 359 360 2 4 5 6 7 8 10 10 12 13 14 14 14 14 14 14 15 14 14 16
201 208 212 217 221 226 229 229 227 227 229 232 227 210 210 199 191 211 324 351 352 353 355 357 359 0 1 2 4 5 7 8 9 11 12 13 13 12 13 14 14 15 16 17
218 223 223 224 227 230 228 225 222 226 228 228 228 219 212 205 214 241 292 320 333 342 347 350 353 354 356 358 0 2 3 5 7 7 9 10 11 12 12 12 13 14 16 16
225 230 232 234 238 236 230 226 226 226 226 226 226 221 213 215 231 245 265 292 315 330 337 341 345 347 350 352 355 357 359 1 3 4 6 8 10 10 11 12 13 14 14 16
229 233 238 243 247 242 236 231 230 228 225 224 220 219 214 220 235 247 261 285 307 319 325 330 335 340 344 347 349 351 354 356 358 360 2 4 6 8 9 10 11 13 14 16
233 237 243 248 251 247 241 233 231 228 226 225 222 218 220 228 238 247 263 284 302 313 318 322 327 332 337 341 343 346 348 351 353 355 357 359 1 3 5 7 8 10 12 13
238 241 244 247 247 245 241 233 230 227 227 228 226 225 227 234 241 254 267 282 297 306 312 316 321 326 331 334 337 340 342 345 347 350 352 354 356 359 1 3 5 7 8 9
240 244 245 243 241 238 231 230 229 228 228 230 231 233 234 238 247 258 268 279 291 300 306 310 315 320 325 328 331 334 337 340 342 344 347 349 351 353 355 357 360 2 3 4
241 242 243 241 237 232 230 230 232 231 231 234 235 237 239 244 252 259 268 277 287 295 300 305 310 315 319 322 326 330 333 336 338 339 342 344 345 347 350 353 355 357 358 360
243 243 244 241 237 231 230 233 234 235 234 235 237 239 242 247 255 261 268 276 284 290 296 300 305 309 314 317 321 324 327 330 333 334 336 338 340 342 344 346 349 351 353 354
248 246 246 244 241 235 235 237 238 239 236 237 240 243 247 251 256 262 268 275 281 287 292 297 301 305 309 313 316 319 322 324 327 329 331 332 334 337 338 340 341 343 345 347
249 248 247 247 245 242 240 241 241 242 242 243 245 248 250 254 258 263 268 274 280 285 290 294 298 302 306 310 312 315 317 320 322 324 326 328 329 331 332 334 335 336 337 339
250 249 248 248 249 248 247 247 247 246 246 247 250 252 254 256 260 264 269 274 279 283 287 291 294 299 303 307 310 312 314 316 318 319 321 323 324 325 327 328 328 329 329 330
252 252 252 251 249 249 249 249 250 250 251 251 253 255 257 260 262 265 270 274 278 281 285 289 292 296 300 303 306 308 311 313 314 315 316 318 319 320 321 322 322 322 323 323
252 253 254 254 253 251 251 251 251 252 253 254 256 257 258 261 264 267 270 273 277 280 283 287 290 294 297 300 303 305 307 309 311 312 313 314 315 316 317 318 318 318 318 318
252 253 254 254 254 254 253 253 254 255 256 257 259 260 261 262 265 267 270 273 276 279 282 285 288 291 294 297 299 302 304 305 308 309 310 311 311 311 313 314 314 314 314 314
Height
5861 5866 5868 5871 5873 5874 5875 5875 5876 5876 5875 5874 5873 5872 5871 5869 5868 5866 5864 5862 5860 5857 5854 5850 5846 5842 5838 5834 5830 5825 5821 5816 5812 5808 5803 5799 5796 5792 5788 5785 5782 5780 5778 5777
5859 5862 5866 5867 5869 5871 5871 5872 5873 5872 5872 5872 5871 5870 5869 5868 5866 5865 5863 5861 5859 5856 5853 5849 5846 5842 5838 5834 5829 5824 5820 5815 5811 5806 5802 5797 5793 5789 5785 5782 5779 5776 5774 5772
5856 5860 5862 5864 5866 5868 5869 5869 5869 5870 5869 5869 5869 5869 5868 5867 5865 5863 5861 5859 5858 5855 5852 5849 5845 5842 5838 5834 5829 5824 5819 5814 5810 5805 5800 5796 5791 5787 5783 5779 5776 5773 5770 5768
5852 5856 5859 5861 5863 5865 5866 5866 5867 5867 5867 5867 5868 5868 5867 5866 5864 5862 5860 5859 5857 5855 5852 5849 5846 5842 5838 5834 5829 5824 5819 5814 5809 5804 5799 5795 5790 5785 5781 5777 5773 5770 5767 5765
5850 5853 5856 5858 5861 5862 5863 5864 5865 5865 5865 5866 5866 5866 5866 5864 5862 5861 5860 5859 5857 5854 5852 5849 5846 5842 5838 5834 5829 5824 5819 5814 5809 5804 5799 5794 5789 5785 5780 5776 5772 5768 5765 5763
5848 5851 5854 5856 5858 5860 5861 5862 5863 5863 5864 5864 5864 5864 5864 5862 5861 5861 5859 5858 5856 5854 5851 5849 5846 5843 5839 5834 5830 5825 5819 5814 5809 5804 5799 5794 5789 5785 5780 5775 5771 5767 5763 5761
5846 5849 5852 5854 5856 5858 5859 5861 5862 5862 5862 5862 5862 5862 5863 5861 5861 5860 5858 5857 5855 5853 5851 5849 5846 5843 5839 5835 5830 5826 5820 5815 5810 5804 5799 5794 5790 5785 5780 5775 5770 5766 5763 5759
5845 5848 5850 5853 5854 5855 5857 5859 5860 5861 5860 5860 5860 5860 5861 5860 5859 5858 5857 5856 5855 5853 5851 5849 5846 5843 5839 5835 5831 5826 5821 5816 5811 5805 5800 5795 5790 5785 5780 5775 5771 5766 5762 5759
5843 5846 5849 5851 5852 5854 5855 5856 5858 5858 5858 5858 5858 5859 5859 5858 5858 5857 5857 5856 5855 5853 5852 5849 5846 5843 5840 5836 5832 5827 5822 5817 5812 5807 5801 5796 5791 5786 5781 5776 5772 5767 5763 5759
5842 5846 5848 5849 5851 5852 5853 5854 5855 5856 5856 5856 5857 5857 5858 5857 5857 5857 5856 5856 5855 5853 5851 5849 5846 5843 5840 5836 5832 5828 5823 5818 5813 5808 5803 5798 5793 5787 5782 5777 5773 5768 5763 5759
5842 5845 5847 5848 5849 5849 5851 5852 5852 5853 5854 5854 5855 5858 5857 5857 5856 5856 5856 5855 5854 5853 5851 5849 5846 5843 5840 5836 5833 5828 5824 5819 5815 5810 5804 5799 5794 5789 5784 5779 5774 5769 5765 5760
5841 5844 5845 5846 5847 5847 5848 5849 5850 5851 5852 5852 5853 5858 5855 5855 5855 5855 5855 5854 5853 5852 5850 5848 5846 5843 5840 5837 5833 5829 5825 5820 5816 5811 5806 5801 5796 5791 5786 5781 5776 5771 5766 5762
5841 5842 5843 5845 5847 5847 5846 5847 5848 5849 5850 5850 5851 5856 5853 5854 5854 5854 5853 5853 5852 5851 5849 5847 5845 5843 5840 5837 5833 5829 5825 5821 5816 5812 5807 5802 5797 5792 5787 5782 5777 5773 5768 5764
5839 5840 5842 5844 5843 5844 5844 5845 5845 5846 5847 5848 5850 5851 5852 5852 5852 5852 5852 5852 5851 5850 5848 5846 5844 5842 5839 5836 5833 5829 5825 5821 5817 5813 5808 5803 5799 5794 5789 5784 5779 5774 5770 5765
5837 5839 5839 5840 5841 5841 5842 5843 5844 5844 5845 5846 5848 5849 5850 5850 5851 5851 5851 5850 5849 5848 5847 5845 5843 5841 5838 5835 5832 5829 5825 5821 5817 5813 5809 5804 5800 5795 5790 5785 5781 5776 5771 5767
5836 5837 5837 5838 5838 5838 5840 5840 5841 5842 5843 5844 5845 5847 5848 5848 5849 5849 5849 5848 5848 5847 5845 5844 5842 5840 5837 5834 5831 5828 5825 5821 5817 5813 5809 5805 5800 5796 5791 5786 5782 5777 5773 5769
5833 5834 5835 5836 5835 5836 5838 5838 5839 5840 5841 5842 5843 5845 5845 5846 5846 5847 5847 5846 5846 5845 5843 5842 5840 5838 5836 5833 5830 5827 5824 5820 5817 5813 5809 5805 5801 5796 5792 5788 5783 5779 5774 5770
5831 5832 5832 5833 5834 5834 5838 5836 5836 5837 5838 5840 5841 5842 5843 5844 5844 5844 5844 5844 5843 5842 5841 5840 5838 5836 5834 5831 5828 5825 5822 5819 5815 5812 5808 5804 5800 5796 5792 5788 5784 5780 5775 5771
5828 5829 5829 5830 5830 5832 5834 5834 5834 5835 5836 5837 5838 5839 5840 5841 5841 5841 5841 5841 5840 5840 5838 5837 5835 5833 5831 5829 5826 5823 5820 5817 5814 5810 5807 5803 5799 5796 5792 5788 5784 5780 5776 5772
5825 5825 5826 5827 5827 5829 5832 5831 5831 5833 5834 5834 5835 5836 5837 5838 5838 5839 5838 5838 5837 5836 5835 5834 5832 5830 5828 5826 5824 5821 5818 5815 5812 5808 5805 5802 5798 5794 5791 5787 5783 5780 5776 5772
5821 5822 5823 5823 5824 5826 5828 5828 5828 5831 5832 5831 5831 5832 5833 5834 5835 5835 5834 5834 5833 5832 5831 5830 5829 5827 5825 5823 5820 5818 5815 5812 5809 5806 5803 5799 5796 5793 5789 5786 5782 5779 5775 5772
5817 5818 5818 5819 5820 5824 5823 5824 5825 5826 5826 5827 5827 5828 5829 5830 5830 5830 5830 5830 5829 5828 5827 5826 5825 5823 5821 5819 5817 5814 5812 5809 5806 5803 5800 5796 5793 5790 5787 5783 5780 5777 5774 5770
5813 5814 5814 5815 5818 5818 5818 5819 5820 5821 5822 5822 5823 5824 5824 5825 5825 5825 5825 5825 5824 5823 5822 5821 5820 5818 5817 5815 5812 5810 5807 5805 5802 5799 5796 5793 5790 5787 5784 5781 5777 5774 5771 5768
5807 5808 5809 5810 5812 5812 5813 5814 5815 5815 5816 5817 5818 5818 5819 5819 5820 5820 5820 5819 5819 5818 5817 5816 5815 5813 5812 5810 5807 5805 5803 5800 5797 5795 5792 5789 5786 5783 5780 5777 5774 5771 5768 5765
5801 5802 5802 5803 5805 5806 5807 5807 5808 5809 5810 5811 5812 5812 5813 5813 5814 5814 5814 5813 5813 5812 5811 5810 5809 5808 5806 5804 5802 5800 5798 5795 5792 5790 5787 5784 5781 5778 5775 5772 5769 5766 5763 5761
5795 5795 5795 5797 5798 5799 5800 5801 5802 5803 5804 5804 5805 5806 5806 5807 5807 5807 5807 5807 5806 5806 5805 5804 5803 5802 5800 5798 5796 5794 5792 5789 5787 5784 5781 5778 5776 5773 5770 5767 5764 5761 5758 5755